Zurück zum Katalog

FENGYUN 1C DEB

AktivSSO
NORAD 32323·DEBRIS·🇨🇳 China

Gestartet May 10, 1999 von Taiyuan Satellite Launch Center

Loading…

Nächste Überflüge (nächste 24 Stunden)

TLE

AktuellSource: Space-Track

Epoche: Sep 14, 2026, 03:35 UTC

1 32323U 99025CXQ 26257.14953840  .00003382  00000-0  21578-2 0  9995
2 32323  98.5841  27.3214 0153473 161.9427 198.7273 13.98550100641170

Verfolge FENGYUN 1C DEB in Echtzeit mit AllMySat

Download on the App Store